Beaufort MCAS, SC

4:59 AM EDT on September 20, 2017 (GMT -0400)
Beaufort Marine Corps Air Station

Weather History for KNBC - November, 2011

Change the Weather History Date:

Thursday, November 10, 2011

  Actual Average Record
Temperature  
Mean Temperature 60 °F -  
Max Temperature 75 °F 70 °F 86 °F (1948)
Min Temperature 46 °F 52 °F 32 °F (1941)
Degree Days  
Heating Degree Days 4    
Growing Degree Days 10 (Base 50)    
Moisture  
Dew Point 47 °F    
Average Humidity 71    
Maximum Humidity 100    
Minimum Humidity 40    
Precipitation  
Precipitation 0.02 in - - ()
Sea Level Pressure  
Sea Level Pressure 29.92 in    
Wind  
Wind Speed 3 mph (WSW)    
Max Wind Speed 15 mph    
Max Gust Speed 24 mph    
Visibility 9 miles    
Events      
Averages and records for this station are not official NWS values.
T = Trace of Precipitation, MM = Missing Value Source: NWS Daily Summary

Daily Weather History Graph

Daily Weather History Graph

Search for Another Location

Airport or City:

Trip Planner

Search our weather history database for the weather conditions in past years. The results will help you decide how hot, cold, wet, or windy it might be!

Date:

Astronomy

Nov. 10, 2011 Rise Set
Actual Time 6:47 AM EST 5:25 PM EST
Civil Twilight 6:21 AM EST 5:51 PM EST
Nautical Twilight 5:52 AM EST 6:20 PM EST
Astronomical Twilight 5:23 AM EST 6:49 PM EST
Moon 5:15 PM EST (11/10) 6:36 AM EST (11/10)
Length of Visible Light 11h 29m
Length of Day
10h 37m
Full, 100% of the Moon is Illuminated
Nov 10
Full
Nov 10
Full
Nov 18
Last Quarter
Nov 25
New
Dec 2
First Quarter

Hourly Weather History & Observations

Time (EST) Temp. Dew Point Humidity Pressure Visibility Wind Dir Wind Speed Gust Speed Precip Events Conditions
12:56 AM 52.0 °F 50.0 °F 93% 29.97 in 10.0 mi Calm Calm - N/A   Clear
1:56 AM 48.9 °F 46.0 °F 90% 29.96 in 10.0 mi Calm Calm - N/A   Clear
2:34 AM 46.4 °F 44.6 °F 93% 29.94 in 1.8 mi Calm Calm - N/A   Clear
2:39 AM 46.4 °F 46.4 °F 100% 29.94 in 1.0 mi Calm Calm - 0.01 in   Clear
2:48 AM 48.2 °F 46.4 °F 93% 29.94 in 2.0 mi Calm Calm - 0.01 in   Clear
2:56 AM 48.0 °F 46.0 °F 93% 29.94 in 10.0 mi Calm Calm - 0.01 in   Clear
3:56 AM 46.9 °F 44.1 °F 90% 29.92 in 10.0 mi Calm Calm - N/A   Clear
4:56 AM 46.9 °F 43.0 °F 86% 29.93 in 10.0 mi Calm Calm - N/A   Clear
5:56 AM 48.9 °F 45.0 °F 86% 29.93 in 10.0 mi Calm Calm - N/A   Clear
6:56 AM 46.0 °F 43.0 °F 89% 29.92 in 10.0 mi Calm Calm - N/A   Clear
7:56 AM 52.0 °F 48.0 °F 86% 29.95 in 10.0 mi Calm Calm - N/A   Clear
8:56 AM 61.0 °F 50.0 °F 67% 29.94 in 10.0 mi Calm Calm - N/A   Clear
9:56 AM 66.0 °F 48.9 °F 54% 29.93 in 10.0 mi West 4.6 mph - N/A   Clear
10:56 AM 70.0 °F 48.9 °F 47% 29.92 in 10.0 mi West 8.1 mph - N/A   Clear
11:56 AM 73.0 °F 50.0 °F 44% 29.89 in 10.0 mi West 8.1 mph - N/A   Scattered Clouds
12:56 PM 75.0 °F 52.0 °F 44% 29.85 in 10.0 mi West 6.9 mph - N/A   Partly Cloudy
1:56 PM 75.0 °F 53.1 °F 46% 29.83 in 10.0 mi West 5.8 mph - N/A   Mostly Cloudy
2:56 PM 69.1 °F 55.9 °F 63% 29.84 in 10.0 mi West 15.0 mph 23.0 mph N/A   Overcast
3:56 PM 63.0 °F 60.1 °F 90% 29.85 in 10.0 mi WSW 3.5 mph - 0.01 in   Overcast
4:22 PM 64.4 °F 60.8 °F 88% 29.85 in 10.0 mi SW 5.8 mph - N/A   Mostly Cloudy
4:56 PM 64.0 °F 60.1 °F 87% 29.85 in 10.0 mi WSW 3.5 mph - N/A   Clear
5:56 PM 63.0 °F 55.9 °F 78% 29.86 in 10.0 mi West 8.1 mph - N/A   Clear
6:56 PM 62.1 °F 50.0 °F 65% 29.88 in 10.0 mi WSW 10.4 mph 18.4 mph N/A   Clear
7:56 PM 60.1 °F 43.0 °F 53% 29.91 in 10.0 mi West 15.0 mph 24.2 mph N/A   Partly Cloudy
8:56 PM 57.9 °F 37.9 °F 47% 29.94 in 10.0 mi West 9.2 mph - N/A   Clear
9:56 PM 55.9 °F 34.0 °F 44% 29.96 in 10.0 mi West 10.4 mph - N/A   Clear
10:56 PM 54.0 °F 30.0 °F 40% 29.99 in 10.0 mi West 13.8 mph - N/A   Partly Cloudy
11:56 PM 52.0 °F 28.9 °F 41% 30.01 in 10.0 mi West 11.5 mph - N/A   Clear